Flight Information

DEPARTURE
BOISE, ID
Elevation:
2871
Runways:
10L/28R - 10000x150 - ASPH-G
10R/28L - 9763x150 - ASPH-G
Active PE Departure:
10L - 10R
Current PE ATIS:
H
Altimeter:
30.60
Remarks:
V F R DEPARTURES CONTACT CLEARANCE DELIVERY, ADVISE ON COURSE HEADING, ALTITUDE, AND IF FLIGHT FOLLOWING IS REQUESTED.
ATIS:
123.9
Clearance Delivery:
125.9
Ground:
121.7
Tower:
BOISE TOWER 118.1
DESTINATION
,
Elevation:
TPA:
1000 (est.)


6520.2 NM71° True-17° Var54° HDG

Flight Plan:
(click to file on line)

1. Type
2. Aircraft Identification
3. Aircraft Type / Special Equipment
4. True Airspeed
kts
5. Departure Airport
(ICAO code)
6. Arriving Airport
(ICAO code)
7. Cruising Altitude
ft
8. Alternate Airport
(ICAO code)
9. Route of Flight
10. Remarks


00:00:00 Departure ATIS: Destination ATIS:

Clearance Limit:
Route:
Altitude: Expect in minutes
Frequency:
Transponder: (7500 Hijack / 7600 Lost Comms / 7700 Emergency)


KBOI 282253Z 20006KT 10SM CLR M02/M10 A3059 RMK AO2 SLP391 T10221100
Time: 2022-01-28T22:53:00Z
1643410754
Winds: 200 @ 6 kts
Visibility: 10.0 sm
Clouds (AGL): CLR
Temperature: -2.2 C
Dew Point: -10.0 C
Pressure: 30.590551 in Hgbr


Notes:

Data extracted from FAA Digital Chart Supplement. Effective: 0901Z Thursday, DEC 2, 2021 to 0901Z Thursday, JAN 27, 2022
Current ATIS data is provided courtisy of PilotEdge.